Djanet, Algeria

10:02 PM CET on October 18, 2017 (GMT +0100)
Djanet

Weather History for DAAJ - October, 2013

Change the Weather History Date:

Wednesday, October 23, 2013

  Actual Average Record
Temperature  
Mean Temperature 66 °F -  
Max Temperature 82 °F 79 °F - ()
Min Temperature 51 °F 56 °F - ()
Cooling Degree Days 2    
Growing Degree Days 16 (Base 50)    
Moisture  
Dew Point 36 °F    
Average Humidity 30    
Maximum Humidity 47    
Minimum Humidity 11    
Precipitation  
Precipitation 0.00 in 0.00 in - ()
Sea Level Pressure  
Sea Level Pressure 30.14 in    
Wind  
Wind Speed 1 mph ()    
Max Wind Speed 12 mph    
Max Gust Speed -    
Visibility 11.9 miles    
Events      
T = Trace of Precipitation, MM = Missing Value Source: Averaged Metar Reports

Daily Weather History Graph

Daily Weather History Graph

Search for Another Location

Airport or City:

Trip Planner

Search our weather history database for the weather conditions in past years. The results will help you decide how hot, cold, wet, or windy it might be!

Date:

Astronomy

Oct. 23, 2013 Rise Set
Actual Time 6:23 AM CET 5:48 PM CET
Civil Twilight 6:00 AM CET 6:11 PM CET
Nautical Twilight 5:33 AM CET 6:38 PM CET
Astronomical Twilight 5:07 AM CET 7:05 PM CET
Moon 9:21 PM CET (10/23) 10:11 AM CET (10/23)
Length of Visible Light 12h 11m
Length of Day
11h 25m
Waning Gibbous, 81% of the Moon is Illuminated
Oct 23
Waning Gibbous
Oct 27
Last Quarter
Nov 3
New
Nov 10
First Quarter
Nov 17
Full

Hourly Weather History & Observations

Time (CET) Temp. Dew Point Humidity Pressure Visibility Wind Dir Wind Speed Gust Speed Precip Events Conditions
12:00 AM 64.4 °F 37.4 °F 37% 30.15 in - North - - N/A   Clear
1:00 AM 61 °F 36 °F 28%  in 12 mi Calm Calm - -  
1:00 AM 60.8 °F 37.4 °F 42% 30.15 in - Calm Calm - N/A   Clear
2:00 AM 60.8 °F 35.6 °F 39% 30.15 in - Calm Calm - N/A   Clear
3:00 AM 57.2 °F 35.6 °F 44% 30.15 in - Calm Calm - N/A   Clear
4:00 AM 56 °F 34 °F 32%  in 12 mi Calm Calm - -  
4:00 AM 55.4 °F 33.8 °F 44% 30.15 in - Calm Calm - N/A   Clear
5:00 AM 53.6 °F 33.8 °F 47% 30.15 in - Calm Calm - N/A   Clear
6:00 AM 53.6 °F 33.8 °F 47% 30.15 in - Calm Calm - N/A   Clear
7:00 AM 55 °F 35 °F 34%  in 12 mi Calm Calm - -  
7:00 AM 55.4 °F 35.6 °F 47% 30.15 in - Calm Calm - N/A   Clear
8:00 AM 59.0 °F 37.4 °F 45% 30.18 in - Calm Calm - N/A   Clear
9:00 AM 64.4 °F 39.2 °F 40% 30.21 in - Calm Calm - N/A   Clear
10:00 AM 70 °F 38 °F 20%  in 12 mi 3.5 mph - -  
10:00 AM 69.8 °F 37.4 °F 31% 30.21 in - North - - N/A   Clear
11:00 AM 73.4 °F 37.4 °F 27% 30.18 in - Variable 3.5 mph - N/A   Clear
12:00 PM 75.2 °F 37.4 °F 25% 30.18 in - North - - N/A   Clear
1:00 PM 80 °F 38 °F 13%  in 19 mi 11.5 mph - -  
1:00 PM 80.6 °F 39.2 °F 23% 30.15 in - North - - N/A   Clear
2:00 PM 80.6 °F 39.2 °F 23% 30.12 in - Calm Calm - N/A   Clear
3:00 PM 82.4 °F 37.4 °F 20% 30.09 in - Calm Calm - N/A   Clear
4:00 PM 82 °F 37 °F 11%  in 19 mi Calm Calm - -   Scattered Clouds
4:00 PM 82.4 °F 37.4 °F 20% 30.09 in 6.2 mi Calm Calm - N/A   Partly Cloudy
5:00 PM 80.6 °F 37.4 °F 21% 30.09 in 6.2 mi Calm Calm - N/A   Partly Cloudy
6:00 PM 78.8 °F 35.6 °F 21% 30.09 in - North - - N/A   Partly Cloudy
7:00 PM 75 °F 36 °F 14%  in 12 mi Calm Calm - -  
7:00 PM 75.2 °F 35.6 °F 24% 30.09 in - North - - N/A   Clear
8:00 PM 71.6 °F 33.8 °F 25% 30.12 in - Variable 3.5 mph - N/A   Clear
10:00 PM 68 °F 34 °F 18%  in 9 mi Calm Calm - -  
10:00 PM 68.0 °F 33.8 °F 28% 30.15 in - North - - N/A   Clear